カタログに戻る

COSMOS 2251 DEB

運用中LEO
NORAD 35020·DEBRIS·🇷🇺 Russia

打ち上げ Jun 16, 1993 から Plesetsk Cosmodrome

Loading…

次のパス (今後24時間)

TLE

最新Source: Space-Track

元期: Sep 13, 2026, 08:43 UTC

1 35020U 93036AGH 26256.36381658  .00000484  00000-0  94917-4 0  9992
2 35020  74.0471  32.6542 0088514  76.3266 284.7738 14.63159606922545

AllMySatでCOSMOS 2251 DEBをリアルタイム追跡

Download on the App Store